Notices

What's New in latest Release from April 7th, 2021:

- Updated Glossary, including Speed of Maximum Gust, and Total Hourly Precipitation

- Updated national and regional climate services offices contacts and prices information

- Addition of station inventory lists for 1981-2010, 1971-2000, and 1961-1990 Normals.

If you haven't already, please take our survey and provide feedback about our website: https://eccc.sondage-survey.ca/f/LanguageSelection.aspx?s=442ca660-fcf1-47c0-95a9-59707d6fd709

Hourly Data Report for January 09, 2021

OTTAWA INTL A
ONTARIO
Current Station Operator: NAVCAN

45°19'00.000" N
75°40'00.000" W
114.90 m
6106001
71628
YOW

Download Data

Hourly Data (January 2021)
Hourly Data Report for January 9, 2021
TIME
LST
Temp Definition
°C
Dew Point Definition
°C
Rel Hum Definition
%
Precip. Amount Definition
mm

Wind Dir Definition
10's deg

Wind Spd Definition
km/h
Visibility Definition
km
Stn Press Definition
kPa
Hmdx Definition


Wind Chill Definition


Weather Definition


00:00 -9.0 -14.1 67   31 10 24.1 100.45   -14 LegendNANA
01:00 -8.2 -13.8 65   33 17 24.1 100.39   -15 Clear
02:00 -8.1 -13.6 65   32 19 24.1 100.40   -15 LegendNANA
03:00 -8.5 -13.8 66   32 18 24.1 100.43   -16 LegendNANA
04:00 -8.3 -13.8 65   32 27 24.1 100.41   -17 Mainly Clear
05:00 -7.9 -14.0 62   33 22 24.1 100.39   -16 LegendNANA
06:00 -7.2 -12.9 64   33 23 24.1 100.44   -15 LegendNANA
07:00 -6.9 -12.8 63   32 25 24.1 100.50   -15 Mostly Cloudy
08:00 -7.3 -12.8 65   31 26 24.1 100.53   -15 LegendNANA
09:00 -8.0 -13.1 67   30 19 24.1 100.59   -15 LegendNANA
10:00 -7.3 -12.9 65   30 18 24.1 100.60   -14 Mostly Cloudy
11:00 -6.7 -12.7 63   30 14 24.1 100.55   -12 LegendNANA
12:00 -5.5 -12.3 59   28 21 24.1 100.47   -12 LegendNANA
13:00 -4.2 -11.7 56   29 17 24.1 100.42   -10 Mostly Cloudy
14:00 -2.2 -10.1 55   29 17 24.1 100.39   -8 LegendNANA
15:00 -1.7 -9.0 58   34 27 24.1 100.44   -8 LegendNANA
16:00 -3.1 -9.0 64   32 24 24.1 100.50   -10 Mostly Cloudy
17:00 -4.3 -8.7 72   32 23 24.1 100.57   -11 LegendNANA
18:00 -5.0 -8.6 76   33 22 24.1 100.61   -12 LegendNANA
19:00 -5.3 -8.3 79   32 13 24.1 100.68   -10 Mostly Cloudy
20:00 -6.2 -8.9 81   32 16 24.1 100.69   -12 LegendNANA
21:00 -7.3 -9.8 83   31 13 24.1 100.72   -13 LegendNANA
22:00 -8.7 -10.9 84   31 17 24.1 100.71   -16 Mainly Clear
23:00 -9.3 -10.8 89   29 10 24.1 100.73   -14 LegendNANA

Notes on Data Quality.

Legend

  • E = Estimated
  • M = Missing
  • NA = Not Available*
  • [empty] = Indicates an unobserved value
Date modified: